Location: ??????????
(54.8537°N, 38.8755°E)
Time: 23:21:10
(UTC+00:00)

Vanguard 2 Rocket - Pass Details

Date: 14 September 2024
Orbit: 553 x 3298 km, 32.9° (Epoch: 09 October)

Event Time Altitude Azimuth Distance (km) Brightness Sun altitude
Rises 06:05:38 0° 267° (W) 6,858 10.9 25.2°
Reaches altitude 10° 06:14:48 10° 244° (WSW) 6,175 10.9 26.3°
Maximum altitude 06:20:55 12° 225° (SW) 6,046 11.1 27.0°
Drops below altitude 10° 06:27:06 10° 207° (SSW) 6,195 11.4 27.7°
Sets 06:36:31 0° 182° (S) 6,896 11.9 28.7°
